Tracking 17636 objects as of 29-April-2016
HD Live streaming from Space Station
objects crossing your sky now

N-1 R/B

Track N-1 R/B now!
10-day predictions


NORAD ID: 8710
Int'l Code: 1976-019B
Perigee: 999.2 km
Apogee: 1,015.5 km
Inclination: 69.7 °
Period: 105.1 minutes
Semi major axis: 7378 km
RCS: 1.547 m2 (large)
Launch date: February 29, 1976
Source: Japan (JPN)
Launch site: TANEGASHIMA SPACE CENTER (TNSTA)

Note: This is a ROCKET BODY
Your satellite tracking list
Your tracking list is empty





NASA's NSSDC Master Catalog

Two Line Element Set (TLE):
1 08710U 76019B   16120.77647072 -.00000040  00000-0  12924-4 0  9996
2 08710  69.6773 339.5283 0011052  37.9064  31.8903 13.69830700  8545
Source of the keplerian elements: AFSPC

N2YO: 274